This demonstration page uses our WeatherBlox Daily Observations layout. Learn more.

Left ArrowRight Arrow

40.92945, -100.16068

Hourly Observations for April 13, 2016

Temp ( °F °C ) Dew Point ( °F °C ) Humidity (%) Winds ( mph kmh ) Pressure ( in mb ) Visibility ( mi km ) Precip ( " mm )
12:15 am 00:15 Clear 53 11.7 35 1.6 50 50 S 7 11 30.03 1017 10 16 N/A
12:35 am 00:35 Clear 52 11.1 35 1.6 52 52 S 7 11 30.03 1017 10 16 N/A
12:55 am 00:55 Clear 53 11.6 35 1.5 50 50 S 9 15 30.03 1017 10 16 N/A
1:15 am 01:15 Clear 52 11.2 34 1.3 51 51 S 10 17 30.03 1017 10 16 N/A
1:35 am 01:35 Clear 53 11.4 34 1.2 50 50 SSW 9 15 30.03 1017 10 16 N/A
1:55 am 01:55 Clear 51 10.8 34 1.1 51 51 SSW 10 17 30.03 1017 10 16 N/A
2:15 am 02:15 Clear 50 10.2 34 1 53 53 SW 8 13 30.06 1018 10 16 N/A
2:35 am 02:35 Clear 49 9.6 34 1 55 55 SSW 9 15 30.06 1018 10 16 N/A
2:55 am 02:55 Clear 48 9.1 34 1 57 57 SSW 7 11 30.06 1018 10 16 N/A
3:15 am 03:15 Clear 48 8.8 33 0.6 57 57 SSW 7 11 30.06 1018 10 16 N/A
3:35 am 03:35 Clear 46 7.7 33 0.3 60 60 SSW 3 6 30.06 1018 10 16 N/A
3:55 am 03:55 Clear 45 7.3 32 0.1 61 61 N N/A 30.06 1018 10 16 N/A
4:15 am 04:15 Clear 41 5 32 undefined 70 70 SSE 5 7 30.09 1019 10 16 N/A
4:35 am 04:35 Clear 41 5.2 32 0.2 70 70 SSE 8 13 30.06 1018 10 16 N/A
4:55 am 04:55 Clear 42 5.4 33 0.3 70 70 SSE 7 11 30.06 1018 10 16 N/A
5:15 am 05:15 Clear 41 4.9 32 undefined 71 71 SE 3 6 30.06 1018 10 16 N/A
5:35 am 05:35 Clear 40 4.3 31 -0.3 72 72 SE 3 6 30.06 1018 10 16 N/A
5:55 am 05:55 Clear 41 5.1 32 -0.1 69 69 SE 3 6 30.06 1018 10 16 N/A
6:15 am 06:15 Clear 37 2.9 30 -0.9 76 76 SSE 6 9 30.09 1019 10 16 N/A
6:35 am 06:35 Clear 39 4 31 -0.3 74 74 SSE 7 11 30.06 1018 10 16 N/A
6:55 am 06:55 Clear 39 3.9 32 undefined 76 76 SSE 8 13 30.12 1020 10 16 N/A
7:15 am 07:15 Sunny 38 3.6 31 -0.4 75 75 SSE 6 9 30.12 1020 10 16 N/A
7:35 am 07:35 Sunny 40 4.2 32 undefined 74 74 SSE 6 9 30.09 1019 10 16 N/A
7:55 am 07:55 Sunny 41 5 32 0.1 71 71 S 5 7 30.09 1019 10 16 N/A
8:15 am 08:15 Sunny 44 6.8 34 0.9 66 66 S 5 7 30.09 1019 10 16 N/A
8:35 am 08:35 Sunny 47 8.2 34 1.3 62 62 S 8 13 30.06 1018 10 16 N/A
8:55 am 08:55 Sunny 50 9.9 37 2.5 60 60 S 6 9 30.06 1018 10 16 N/A
9:15 am 09:15 Sunny 53 11.4 39 3.8 60 60 S 5 7 30.03 1017 10 16 N/A
9:35 am 09:35 Sunny 56 13.5 42 5.3 58 58 SSW 6 9 30.00 1016 10 16 N/A
9:55 am 09:55 Sunny 59 15.1 43 6.2 56 56 S 8 13 30.00 1016 10 16 N/A
10:15 am 10:15 Sunny 62 16.5 44 6.4 51 51 SSW 13 20 30.00 1016 10 16 N/A
10:35 am 10:35 Sunny 63 17.2 44 6.6 50 50 SSW 12 19 29.97 1015 10 16 N/A
10:55 am 10:55 Sunny 64 18 43 6.2 46 46 SSW 17 28 29.97 1015 10 16 N/A
11:15 am 11:15 Sunny 65 18.2 43 6 45 45 SSW 15 24 29.97 1015 10 16 N/A
11:35 am 11:35 Sunny 67 19.3 43 6.3 43 43 S 16 26 29.97 1015 10 16 N/A
11:55 am 11:55 Sunny 67 19.5 43 6.1 42 42 SSW 14 22 29.97 1015 10 16 N/A
12:15 pm 12:15 Sunny 68 20.2 43 6.3 41 41 SSW 14 22 29.94 1014 10 16 N/A
12:35 pm 12:35 Sunny 71 21.4 44 6.5 38 38 S 14 22 29.94 1014 10 16 N/A
12:55 pm 12:55 Sunny 71 21.7 44 6.4 37 37 SW 17 28 29.94 1014 10 16 N/A
1:15 pm 13:15 Sunny 72 22.4 44 6.6 36 36 SSW 12 19 29.91 1013 10 16 N/A
1:35 pm 13:35 Sunny 73 22.9 42 5.8 33 33 S 14 22 29.91 1013 10 16 N/A
1:55 pm 13:55 Sunny 74 23.3 42 5.3 31 31 S 16 26 29.91 1013 10 16 N/A
2:15 pm 14:15 Sunny 74 23.6 41 5.2 30 30 SW 18 30 29.88 1012 10 16 N/A
2:35 pm 14:35 Sunny 75 24.1 41 4.8 29 29 S 15 24 29.88 1012 10 16 N/A
2:55 pm 14:55 Sunny 75 24.1 39 4.1 27 27 SSW 15 24 29.85 1011 10 16 N/A
3:15 pm 15:15 Sunny 76 24.5 39 4 27 27 S 15 24 29.85 1011 10 16 N/A
3:35 pm 15:35 Sunny 76 24.7 39 4.1 26 26 S 14 22 29.85 1011 10 16 N/A
3:55 pm 15:55 Sunny 76 24.5 39 4.1 27 27 S 20 31 29.85 1011 10 16 N/A
4:15 pm 16:15 Sunny 76 24.6 39 4 26 26 SSW 20 31 29.85 1011 10 16 N/A
4:35 pm 16:35 Sunny 76 24.3 40 4.2 27 27 S 15 24 29.83 1010 10 16 N/A
4:55 pm 16:55 Sunny 76 24.2 38 3.6 26 26 S 14 22 29.83 1010 10 16 N/A
5:15 pm 17:15 Sunny 76 24.5 39 4.1 27 27 SSW 13 20 29.83 1010 10 16 N/A
5:35 pm 17:35 Sunny 75 24 38 3.3 26 26 S 15 24 29.83 1010 10 16 N/A
5:55 pm 17:55 Sunny 75 24 38 3.2 26 26 S 17 28 29.83 1010 10 16 N/A
6:15 pm 18:15 Sunny 74 23.5 37 2.8 26 26 S 18 30 29.83 1010 10 16 N/A
6:35 pm 18:35 Sunny 74 23.2 36 2.4 26 26 S 16 26 29.83 1010 10 16 N/A
6:55 pm 18:55 Sunny 73 22.8 36 2.4 26 26 S 15 24 29.83 1010 10 16 N/A
7:15 pm 19:15 Sunny 72 22.2 36 2.1 27 27 S 15 24 29.85 1011 10 16 N/A
7:35 pm 19:35 Sunny 70 21.2 36 2.4 29 29 S 12 19 29.85 1011 10 16 N/A
7:55 pm 19:55 Sunny 67 19.5 36 2.4 32 32 S 10 17 29.85 1011 10 16 N/A
8:15 pm 20:15 Sunny 64 17.9 37 2.5 36 36 S 9 15 29.88 1012 10 16 N/A
8:35 pm 20:35 Clear 62 16.5 37 2.7 40 40 S 10 17 29.88 1012 10 16 N/A
8:55 pm 20:55 Clear 60 15.4 37 2.7 43 43 S 9 15 29.91 1013 7 11 N/A
9:15 pm 21:15 Clear 57 14.1 37 2.5 46 46 S 7 11 29.94 1014 7 11 N/A
9:35 pm 21:35 Clear 58 14.6 36 2.3 44 44 SSE 7 11 29.94 1014 10 16 N/A
9:55 pm 21:55 Clear 56 13.3 37 2.5 48 48 SSE 6 9 29.94 1014 10 16 N/A
10:15 pm 22:15 Clear 55 13 36 2.3 48 48 SE 5 7 29.94 1014 10 16 N/A
10:35 pm 22:35 Clear 55 12.5 36 2.2 50 50 SE 6 9 29.97 1015 10 16 N/A
10:55 pm 22:55 Clear 54 12.3 36 2.3 51 51 SSE 5 7 29.97 1015 10 16 N/A
11:15 pm 23:15 Clear 55 12.5 36 2.2 50 50 SSE 6 9 29.97 1015 10 16 N/A
11:35 pm 23:35 Clear 54 12 36 2.2 51 51 SSE 5 7 29.97 1015 10 16 N/A
11:55 pm 23:55 Clear 52 11.1 36 2.1 54 54 S 3 6 29.97 1015 10 16 N/A

Powered by AerisWeather